Location: Ammerl�gen
(47.2167°N, 9.6000°E)
Time: 07:04:27
(UTC+00:00)

RS-15 - Pass Details

Date: 12 December 2021
Orbit: 1882 x 2162 km, 64.8° (Epoch: 17 January)

Event Time Altitude Azimuth Distance (km) Brightness Sun altitude
Exits shadow 00:15:00 22° 58° (ENE) 3,655 9.5 -63.0°
Drops below altitude 10° 00:19:01 10° 45° (NE) 4,616 10.2 -62.7°
Sets 00:22:50 0° 38° (NE) 5,650 10.9 -62.3°
